Weather History for Milton, FL

Change the Weather History Date:

Sunday, June 30, 2013

  Actual Average (KNSE) Record (KNSE)
Temperature  
Mean Temperature 79 °F -  
Max Temperature 88 °F 86 °F 99 °F (1998)
Min Temperature 70 °F 69 °F 66 °F (2006)
Cooling Degree Days 14    
Growing Degree Days 29 (Base 50)    
Moisture  
Dew Point 70 °F    
Average Humidity 75    
Maximum Humidity 90    
Minimum Humidity 52    
Precipitation  
Precipitation 0.00 in - - ()
Sea Level Pressure  
Sea Level Pressure 29.70 in    
Wind  
Wind Speed 3 mph (SSE)    
Max Wind Speed 9 mph    
Max Gust Speed -    
Visibility 10 miles    
Events Thunderstorm    
Averages and records for this station are not official NWS values.
T = Trace of Precipitation, MM = Missing Value Source: NWS Daily Summary

Daily Weather History Graph

Daily Weather History Graph

Search for Another Location

Airport:

Trip Planner

Search our weather history database for the weather conditions in past years. The results will help you decide how hot, cold, wet, or windy it might be!

Date:

Astronomy

Jun. 30, 2013 Rise Set
Actual Time 5:48 AM CDT 7:54 PM CDT
Civil Twilight 5:20 AM CDT 8:22 PM CDT
Nautical Twilight 4:47 AM CDT 8:56 PM CDT
Astronomical Twilight 4:11 AM CDT 9:32 PM CDT
Moon 12:27 AM CDT (6/30) 1:26 PM CDT (6/30)
Length of Visible Light 15h 01m
Length of Day
14h 06m
Last Quarter, 45% of the Moon is Illuminated
Jun 30
Last Quarter
Jul 8
New
Jul 15
First Quarter
Jul 22
Full
Jul 29
Last Quarter

Hourly Weather History & Observations

Time (CDT) Temp. Heat Index Dew Point Humidity Pressure Visibility Wind Dir Wind Speed Gust Speed Precip Events Conditions
12:56 AM 75.0 °F - 69.1 °F 82% 29.71 in 10.0 mi WNW 3.5 mph - N/A   Overcast
1:56 AM 75.0 °F - 68.0 °F 79% 29.68 in 10.0 mi NNW 4.6 mph - N/A   Overcast
2:56 AM 73.9 °F - 68.0 °F 82% 29.67 in 10.0 mi Calm Calm - N/A   Clear
3:56 AM 72.0 °F - 68.0 °F 87% 29.67 in 10.0 mi SE 4.6 mph - N/A   Clear
4:56 AM 71.1 °F - 68.0 °F 90% 29.67 in 10.0 mi SE 3.5 mph - N/A   Clear
5:56 AM 70.0 °F - 66.9 °F 90% 29.70 in 10.0 mi Calm Calm - N/A   Clear
6:56 AM 73.0 °F - 69.1 °F 87% 29.71 in 10.0 mi Calm Calm - N/A   Mostly Cloudy
7:56 AM 75.9 °F - 70.0 °F 82% 29.71 in 10.0 mi Calm Calm - N/A   Mostly Cloudy
8:56 AM 80.1 °F 83.6 °F 71.1 °F 74% 29.71 in 10.0 mi NW 3.5 mph - N/A   Partly Cloudy
9:56 AM 82.0 °F 85.5 °F 69.1 °F 65% 29.71 in 10.0 mi Calm Calm - N/A   Overcast
10:56 AM 81.0 °F 84.9 °F 71.1 °F 72% 29.71 in 10.0 mi West 3.5 mph - N/A   Mostly Cloudy
11:56 AM 82.9 °F 87.5 °F 71.1 °F 67% 29.70 in 10.0 mi Variable 4.6 mph - N/A   Clear
12:56 PM 86.0 °F 91.5 °F 71.1 °F 61% 29.68 in 10.0 mi Calm Calm - N/A   Mostly Cloudy
1:56 PM 88.0 °F 92.9 °F 70.0 °F 55% 29.67 in 10.0 mi North 4.6 mph - N/A   Mostly Cloudy
2:33 PM 87.8 °F 91.4 °F 68.0 °F 52% 29.71 in 10.0 mi Variable 3.5 mph - N/A   Overcast
2:56 PM 87.1 °F 90.6 °F 68.0 °F 53% 29.67 in 10.0 mi ESE 4.6 mph - N/A   Mostly Cloudy
3:56 PM 87.1 °F 90.6 °F 68.0 °F 53% 29.68 in 10.0 mi Calm Calm - N/A   Overcast
4:56 PM 84.0 °F 89.0 °F 71.1 °F 65% 29.67 in 10.0 mi South 6.9 mph - N/A   Overcast
5:19 PM 82.4 °F 88.2 °F 73.4 °F 74% 29.71 in 10.0 mi Variable 3.5 mph - N/A Thunderstorm Thunderstorm
5:56 PM 80.1 °F 84.2 °F 73.0 °F 79% 29.68 in 10.0 mi South 8.1 mph - N/A Thunderstorm Thunderstorm
6:20 PM 78.8 °F - 69.8 °F 74% 29.73 in 10.0 mi SE 8.1 mph - N/A   Partly Cloudy
6:29 PM 78.8 °F - 71.6 °F 78% 29.74 in 10.0 mi SSE 9.2 mph - N/A Thunderstorm Thunderstorm
6:45 PM 78.8 °F - 71.6 °F 78% 29.74 in 10.0 mi South 5.8 mph - N/A   Clear
6:56 PM 77.0 °F - 70.0 °F 79% 29.70 in 10.0 mi SSE 9.2 mph - N/A   Clear
7:56 PM 73.9 °F - 69.1 °F 85% 29.71 in 10.0 mi SE 3.5 mph - N/A   Clear
8:56 PM 73.9 °F - 69.1 °F 85% 29.71 in 10.0 mi ESE 3.5 mph - N/A   Clear
9:56 PM 73.0 °F - 68.0 °F 84% 29.74 in 10.0 mi Calm Calm - N/A   Clear
10:56 PM 71.1 °F - 68.0 °F 90% 29.75 in 10.0 mi Calm Calm - N/A   Clear
11:56 PM 72.0 °F - 66.9 °F 84% 29.74 in 10.0 mi Calm Calm - N/A   Clear